Location: Sobotiste
(48.7170°N, 17.4000°E)
Time: 07:30:27
(UTC+02:00)

YUBILEINY - Pass Details

Date: 13 March 2026
Orbit: 1477 x 1509 km, 82.5° (Epoch: 13 April)

Event Time Altitude Azimuth Distance (km) Brightness Sun altitude
Rises 18:42:09 0° 244° (WSW) 4,636 ? -9.0°
Reaches altitude 10° 18:46:05 10° 260° (W) 3,655 ? -9.7°
Maximum altitude 18:52:20 21° 306° (NW) 2,884 ? -10.7°
Drops below altitude 10° 18:58:36 10° 352° (N) 3,649 ? -11.7°
Sets 19:02:34 0° 8° (N) 4,627 ? -12.3°
